Weather History for Monroe, MI

Change the Weather History Date:

Saturday, November 19, 2011

  Actual Average Record
Temperature  
Mean Temperature 46 °F -  
Max Temperature 55 °F 46 °F 70 °F (1941)
Min Temperature 37 °F 31 °F 18 °F (1951)
Degree Days  
Heating Degree Days 19    
Moisture  
Dew Point 32 °F    
Average Humidity 61    
Maximum Humidity 82    
Minimum Humidity 42    
Precipitation  
Precipitation 0.00 in - - ()
Sea Level Pressure  
Sea Level Pressure 29.99 in    
Wind  
Wind Speed 9 mph (SSW)    
Max Wind Speed 22 mph    
Max Gust Speed 29 mph    
Visibility 10 miles    
Events Rain    
Averages and records for this station are not official NWS values.
T = Trace of Precipitation, MM = Missing Value Source: NWS Daily Summary

Daily Weather History Graph

Daily Weather History Graph

Search for Another Location

Airport:

Trip Planner

Search our weather history database for the weather conditions in past years. The results will help you decide how hot, cold, wet, or windy it might be!

Date:

Astronomy

Nov. 19, 2011 Rise Set
Actual Time 7:28 AM EST 5:09 PM EST
Civil Twilight 6:57 AM EST 5:40 PM EST
Nautical Twilight 6:23 AM EST 6:14 PM EST
Astronomical Twilight 5:50 AM EST 6:47 PM EST
Moon 12:41 AM EST (11/19) 1:32 PM EST (11/19)
Length of Visible Light 10h 42m
Length of Day
9h 41m
Last Quarter, 38% of the Moon is Illuminated
Nov 19
Last Quarter
Nov 25
New
Dec 2
First Quarter
Dec 10
Full
Dec 17
Last Quarter

Hourly Weather History & Observations

Time (EST) Temp. Windchill Dew Point Humidity Pressure Visibility Wind Dir Wind Speed Gust Speed Precip Events Conditions
12:11 AM 41.0 °F 37.1 °F 21.2 °F 45% 30.04 in 10.0 mi SSW 5.8 mph - N/A   Scattered Clouds
12:31 AM 41.0 °F 36.4 °F 21.2 °F 45% 30.04 in 10.0 mi SSW 6.9 mph - N/A   Scattered Clouds
12:51 AM 42.8 °F 38.6 °F 21.2 °F 42% 30.04 in 10.0 mi SSW 6.9 mph - N/A   Scattered Clouds
1:11 AM 42.8 °F 39.3 °F 21.2 °F 42% 30.04 in 10.0 mi South 5.8 mph - N/A   Scattered Clouds
1:31 AM 41.0 °F 37.1 °F 23.0 °F 49% 30.03 in 10.0 mi South 5.8 mph - N/A   Mostly Cloudy
1:51 AM 42.8 °F 39.3 °F 23.0 °F 46% 30.04 in 10.0 mi SSW 5.8 mph - N/A   Overcast
2:12 AM 42.8 °F 40.1 °F 23.0 °F 46% 30.04 in 10.0 mi SSW 4.6 mph - N/A   Overcast
2:32 AM 42.8 °F 40.1 °F 23.0 °F 46% 30.05 in 10.0 mi SW 4.6 mph - N/A   Mostly Cloudy
3:12 AM 41.0 °F 37.1 °F 24.8 °F 53% 30.06 in 10.0 mi South 5.8 mph - N/A   Scattered Clouds
3:32 AM 39.2 °F 35.0 °F 23.0 °F 52% 30.06 in 10.0 mi South 5.8 mph - N/A   Clear
3:52 AM 37.4 °F 32.8 °F 24.8 °F 60% 30.06 in 10.0 mi South 5.8 mph - N/A   Clear
4:13 AM 37.4 °F 32.8 °F 24.8 °F 60% 30.05 in 10.0 mi South 5.8 mph - N/A   Clear
4:33 AM 39.2 °F 34.2 °F 24.8 °F 56% 30.05 in 10.0 mi South 6.9 mph - N/A   Clear
4:53 AM 39.2 °F 33.6 °F 24.8 °F 56% 30.05 in 10.0 mi South 8.1 mph - N/A   Clear
5:13 AM 41.0 °F 34.7 °F 24.8 °F 53% 30.05 in 10.0 mi South 10.4 mph - N/A   Clear
5:33 AM 41.0 °F 35.2 °F 24.8 °F 53% 30.05 in 10.0 mi South 9.2 mph - N/A   Clear
5:53 AM 41.0 °F 35.8 °F 24.8 °F 53% 30.05 in 10.0 mi South 8.1 mph - N/A   Clear
6:13 AM 39.2 °F 33.6 °F 24.8 °F 56% 30.04 in 10.0 mi South 8.1 mph - N/A   Clear
6:34 AM 39.2 °F 33.6 °F 26.6 °F 61% 30.05 in 10.0 mi South 8.1 mph - N/A   Clear
6:54 AM 41.0 °F 35.2 °F 26.6 °F 57% 30.05 in 10.0 mi South 9.2 mph - N/A   Clear
7:14 AM 39.2 °F 32.5 °F 26.6 °F 61% 30.05 in 10.0 mi South 10.4 mph - N/A   Clear
7:34 AM 41.0 °F 35.2 °F 26.6 °F 57% 30.04 in 10.0 mi South 9.2 mph - N/A   Clear
7:54 AM 42.8 °F 36.6 °F 26.6 °F 53% 30.04 in 10.0 mi South 11.5 mph - N/A   Clear
8:14 AM 42.8 °F 37.5 °F 28.4 °F 57% 30.04 in 10.0 mi South 9.2 mph - N/A   Clear
8:55 AM 42.8 °F 36.2 °F 28.4 °F 57% 30.05 in 10.0 mi South 12.7 mph 16.1 mph N/A   Clear
9:15 AM 44.6 °F 38.8 °F 28.4 °F 53% 30.05 in 10.0 mi SSW 11.5 mph - N/A   Clear
9:35 AM 46.4 °F 40.4 °F 28.4 °F 50% 30.04 in 10.0 mi SSW 13.8 mph 18.4 mph N/A   Clear
9:55 AM 46.4 °F 40.1 °F 30.2 °F 53% 30.04 in 10.0 mi SSW 15.0 mph 19.6 mph N/A   Scattered Clouds
10:10 AM 46.4 °F 41.1 °F 30.2 °F 53% 30.04 in 10.0 mi SSW 11.5 mph 20.7 mph N/A   Mostly Cloudy
10:30 AM 46.4 °F 41.5 °F 30.2 °F 53% 30.04 in 10.0 mi SSW 10.4 mph 19.6 mph N/A   Overcast
10:51 AM 48.2 °F - 30.2 °F 50% 30.04 in 10.0 mi SSW 15.0 mph - N/A   Overcast
11:11 AM 48.2 °F - 30.2 °F 50% 30.03 in 10.0 mi SSW 15.0 mph 23.0 mph N/A   Overcast
11:31 AM 50.0 °F - 30.2 °F 47% 30.03 in 10.0 mi SSW 15.0 mph 19.6 mph N/A   Overcast
11:51 AM 50.0 °F - 30.2 °F 47% 30.02 in 10.0 mi SSW 16.1 mph 21.9 mph N/A   Overcast
12:11 PM 50.0 °F - 30.2 °F 47% 30.01 in 10.0 mi SW 12.7 mph 21.9 mph N/A   Overcast
1:12 PM 50.0 °F - 30.2 °F 47% 29.99 in 10.0 mi SSW 18.4 mph 24.2 mph N/A   Overcast
1:32 PM 50.0 °F - 30.2 °F 47% 29.99 in 10.0 mi SSW 11.5 mph 23.0 mph N/A   Overcast
1:52 PM 48.2 °F - 33.8 °F 58% 29.99 in 10.0 mi SSW 12.7 mph 21.9 mph N/A   Drizzle
2:12 PM 46.4 °F 38.5 °F 37.4 °F 71% 29.99 in 10.0 mi SSW 21.9 mph 28.8 mph N/A   Drizzle
2:32 PM 46.4 °F 41.1 °F 39.2 °F 76% 29.96 in 7.0 mi South 11.5 mph - N/A Rain Light Rain
2:52 PM 46.4 °F 39.8 °F 39.2 °F 76% 29.96 in 10.0 mi SSW 16.1 mph 21.9 mph N/A   Light Drizzle
3:12 PM 46.4 °F 41.1 °F 39.2 °F 76% 29.95 in 10.0 mi South 11.5 mph - N/A   Overcast
3:32 PM 46.4 °F 40.7 °F 41.0 °F 81% 29.94 in 10.0 mi South 12.7 mph 21.9 mph N/A   Overcast
3:53 PM 48.2 °F - 42.8 °F 82% 29.94 in 10.0 mi South 11.5 mph 16.1 mph N/A   Overcast
4:13 PM 48.2 °F - 42.8 °F 82% 29.94 in 10.0 mi South 17.3 mph 26.5 mph N/A   Overcast
4:33 PM 48.2 °F - 42.8 °F 82% 29.93 in 10.0 mi SSW 16.1 mph 21.9 mph N/A   Overcast
4:53 PM 48.2 °F - 41.0 °F 76% 29.93 in 10.0 mi SSW 12.7 mph 19.6 mph N/A   Overcast
5:13 PM 48.2 °F - 42.8 °F 82% 29.92 in 10.0 mi South 11.5 mph - N/A   Mostly Cloudy
5:33 PM 48.2 °F - 42.8 °F 82% 29.93 in 10.0 mi SSW 12.7 mph 18.4 mph N/A   Overcast
5:53 PM 48.2 °F - 42.8 °F 82% 29.93 in 10.0 mi SSW 10.4 mph 18.4 mph N/A   Overcast
6:13 PM 50.0 °F - 42.8 °F 76% 29.93 in 10.0 mi SSW 8.1 mph - N/A   Overcast
6:54 PM 50.0 °F - 42.8 °F 76% 29.91 in 10.0 mi SSW 8.1 mph - N/A   Overcast
7:14 PM 51.8 °F - 42.8 °F 71% 29.90 in 10.0 mi SSW 9.2 mph - N/A   Overcast
7:34 PM 51.8 °F - 42.8 °F 71% 29.89 in 10.0 mi SSW 9.2 mph - N/A   Overcast
7:54 PM 51.8 °F - 42.8 °F 71% 29.89 in 10.0 mi SSW 8.1 mph - N/A   Overcast
8:14 PM 51.8 °F - 44.6 °F 76% 29.88 in 10.0 mi SSW 11.5 mph - N/A   Overcast
8:34 PM 53.6 °F - 44.6 °F 72% 29.88 in 10.0 mi SSW 12.7 mph 18.4 mph N/A   Overcast
8:55 PM 53.6 °F - 44.6 °F 72% 29.88 in 10.0 mi SSW 12.7 mph - N/A   Overcast
9:15 PM 53.6 °F - 44.6 °F 72% 29.88 in 10.0 mi SW 15.0 mph - N/A   Overcast
9:35 PM 55.4 °F - 44.6 °F 67% 29.88 in 10.0 mi SSW 10.4 mph 16.1 mph N/A   Overcast
9:55 PM 55.4 °F - 44.6 °F 67% 29.88 in 10.0 mi SW 10.4 mph 16.1 mph N/A   Overcast
10:10 PM 55.4 °F - 44.6 °F 67% 29.87 in 10.0 mi SSW 11.5 mph - N/A   Overcast
10:51 PM 55.4 °F - 46.4 °F 72% 29.85 in 10.0 mi SSW 13.8 mph 18.4 mph N/A   Scattered Clouds
11:11 PM 55.4 °F - 46.4 °F 72% 29.85 in 10.0 mi SSW 13.8 mph 20.7 mph N/A   Mostly Cloudy
11:31 PM 55.4 °F - 46.4 °F 72% 29.85 in 10.0 mi SSW 15.0 mph 18.4 mph N/A   Overcast
11:51 PM 55.4 °F - 46.4 °F 72% 29.85 in 10.0 mi SSW 12.7 mph 20.7 mph N/A   Overcast